CAPE
319 0 0 0 25 51 8 61 264 51 14 32 12 17 29 93 167 0 77 145 682 1022 1362 1562 1917 1885 1678 1649 1634 1699 2394 2571 2443 2667 2768 2682 2636 2703 2683 2755 2633 2645 2619 2034 2079 1645 1452 1146 1254
0 0 0 102 6 10 86 241 194 29 14 0 44 87 110 129 230 216 144 475 885 1034 1255 1533 2134 2090 1979 1728 1682 1577 1568 2069 2212 2568 2638 2678 2794 2737 2656 2645 2586 2669 2710 2220 2003 1741 1520 1387 1290
0 0 0 87 90 12 94 158 10 4 18 16 94 106 183 264 125 128 181 653 970 941 1028 1320 1775 2196 2033 2168 2115 1652 1845 1647 1857 2185 2567 2551 2616 2749 2681 2709 2816 2816 2456 2210 2073 1755 1605 1484 1362
31 15 0 140 178 45 129 121 8 0 14 39 120 118 134 141 121 142 365 686 693 759 831 1486 1867 2120 1818 2014 2113 1858 2027 2073 1647 2178 2356 2322 2517 2595 2644 2692 2864 2490 2261 2309 2157 1980 1549 1347 1557
138 118 72 111 89 97 33 437 26 34 33 51 68 58 77 119 179 223 428 412 537 823 1161 1198 2029 2053 1693 1972 2037 1907 1717 1988 1852 1966 2148 2067 2311 2554 2582 2515 2616 2130 2099 2196 2104 2075 1597 2472 2499
117 112 34 85 95 118 290 315 18 50 56 59 47 36 28 107 177 204 241 351 818 1046 1203 1460 1735 1860 1758 1918 1933 1972 1941 1910 2028 1874 1955 2129 2357 2471 2545 2477 2442 2364 2026 2051 2089 1793 2355 2691 2634
158 84 127 89 39 162 127 214 7 38 34 6 6 4 5 20 67 103 179 434 777 1069 1187 1316 1249 1723 1671 1762 1708 1803 1875 1729 1878 1863 1948 2148 2288 2468 2364 2504 2597 2494 2091 2060 2057 1702 2090 2515 2922
223 6 17 40 94 215 62 182 230 103 5 0 0 38 15 0 45 99 199 431 785 929 1008 1177 1146 1287 1155 1442 1618 1736 1858 1886 1887 1894 1734 2018 2237 2297 2340 2490 2996 2549 2157 2025 1887 1861 2011 2164 2476
70 7 3 56 94 118 72 24 111 120 13 0 0 3 7 8 78 103 306 370 724 904 898 1003 905 1048 1072 1120 1421 1617 1854 1956 1958 1805 1771 1729 1300 1542 1455 2500 2594 2362 2048 1945 1918 1883 1905 1902 2057
8 0 3 16 3 195 47 26 66 6 24 0 0 0 0 18 48 60 146 230 603 730 824 799 618 853 1011 1467 1138 1062 1311 1078 1195 1150 1001 792 895 1139 1568 2191 2264 2085 1962 1915 1936 1893 1714 1518 1157
1 1 0 1 24 112 25 27 22 17 125 6 0 0 0 11 13 4 20 166 374 468 806 707 556 764 896 1013 733 730 598 650 618 716 699 637 718 1226 1360 1261 1228 1289 1358 386 526 737 1176 1391 988
0 1 22 34 124 155 36 11 5 55 48 3 0 18 1 0 1 3 54 128 136 336 680 580 535 751 582 821 689 655 718 734 537 556 549 591 566 807 884 894 811 637 243 39 0 0 10 757 1020
6 99 8 288 66 31 19 10 0 10 115 3 51 37 28 5 23 62 101 130 184 351 474 454 459 586 546 791 595 587 764 817 501 484 551 421 414 541 601 742 774 522 26 0 17 0 156 0 57
3 59 71 179 127 36 96 31 114 15 212 2 68 0 15 25 20 31 85 198 247 253 341 303 370 504 517 469 633 570 568 633 535 582 587 243 78 176 459 596 629 468 138 503 496 490 301 0 23
0 93 121 190 174 72 28 36 64 54 74 0 0 3 28 50 18 42 135 191 225 349 322 228 213 410 447 437 474 450 364 409 454 608 450 149 22 79 384 484 528 492 465 604 607 657 397 0 0
0 5 163 198 410 74 83 14 32 19 23 6 0 0 40 48 40 65 131 207 296 314 246 175 255 325 260 193 459 392 438 414 456 691 756 356 298 451 464 447 293 135 687 518 831 607 291 48 1
0 0 35 185 488 228 47 11 27 32 30 54 0 0 11 35 61 107 158 254 300 284 197 348 360 266 195 489 347 335 87 124 216 579 776 726 313 372 664 391 362 441 336 661 352 216 211 433 270
0 0 36 267 365 350 46 13 70 55 83 181 44 0 9 34 85 114 163 339 318 266 251 310 208 132 205 403 181 84 0 0 0 466 659 697 556 889 809 673 615 897 533 697 429 575 533 650 232
0 0 298 268 67 8 12 24 34 65 107 247 300 0 12 15 43 91 175 340 286 236 110 320 210 49 365 400 248 142 3 13 10 75 533 801 714 985 872 966 683 1224 753 521 780 690 459 189 163
0 11 163 167 188 73 3 19 56 74 130 168 266 0 1 12 69 123 206 303 192 151 87 198 265 0 261 331 287 281 181 125 128 109 475 641 835 716 864 875 779 916 752 330 776 788 371 553 97
0 0 175 159 77 138 93 49 60 58 111 179 278 0 1 6 46 151 254 295 145 80 100 183 210 0 48 472 252 109 200 246 272 287 449 666 794 754 919 822 790 992 593 674 686 943 916 646 504
0 0 67 172 37 4 89 1 46 127 167 235 131 0 11 5 7 94 220 198 67 68 159 115 182 2 0 309 357 381 461 356 294 247 280 597 884 892 754 598 663 824 757 679 632 784 364 334 815
0 0 30 179 128 99 156 0 0 150 177 185 161 0 1 6 11 50 141 108 13 208 175 229 185 27 203 188 150 113 44 11 167 294 250 660 891 787 930 788 813 631 471 312 723 1005 640 850 913
0 7 19 0 0 17 60 11 0 53 135 131 124 31 1 23 16 43 121 86 37 325 192 265 186 87 375 420 115 70 8 68 521 561 382 599 782 804 921 797 676 449 360 300 358 782 520 1132 1263
0 2 11 44 22 9 0 6 0 3 92 143 142 40 5 3 15 29 68 89 92 343 240 224 159 68 202 608 608 235 58 89 392 478 422 497 653 695 923 864 641 668 445 375 252 757 894 720 850
0 0 0 0 0 0 0 0 0 24 52 155 297 189 271 211 25 1 34 93 109 262 399 265 137 60 80 358 627 449 128 108 185 313 110 213 501 611 798 898 804 597 593 697 626 605 824 972 939
0 0 0 0 0 3 0 0 1 69 2 215 123 235 365 190 121 66 17 73 143 193 255 613 349 143 173 356 481 604 326 93 86 227 80 21 151 421 541 887 982 849 671 780 783 701 745 900 676
0 0 0 0 0 1 0 16 11 280 92 0 159 55 67 137 145 190 238 123 154 206 203 129 408 325 304 400 562 619 713 280 110 108 148 155 184 433 715 717 880 851 906 884 783 612 406 683 664
0 0 0 0 0 2 29 6 243 219 558 404 192 44 55 134 97 125 156 110 116 143 128 70 6 286 401 415 629 837 841 868 389 195 106 106 271 366 555 559 199 584 900 913 873 599 468 522 549
0 0 0 0 0 0 0 32 308 366 353 233 99 62 19 0 0 22 51 184 138 104 54 37 56 96 123 191 310 486 412 445 630 647 696 974 788 377 539 406 212 242 732 875 822 804 714 592 774
CIN
-4 0 0 0 -25 -5 -47 -70 -78 -28 -57 -80 -122 -134 -136 -107 -96 0 -178 -155 -43 -7 -3 -2 -1 0 0 0 -3 -2 0 0 0 0 0 0 0 0 0 0 0 0 0 0 0 0 0 0 0
0 0 0 -22 -3 -51 -16 -38 -39 -85 -131 0 -112 -98 -140 -147 -137 -121 -134 -51 -27 -12 -4 -3 0 0 0 0 0 -3 -3 0 0 0 0 0 0 0 0 0 0 0 0 0 0 0 0 0 -1
0 0 -13 -8 0 -24 -27 -43 -97 -107 -118 -103 -154 -144 -137 -119 -163 -138 -133 -35 -5 -8 -17 -3 0 0 0 0 0 0 0 -1 0 0 0 0 0 0 0 0 0 0 0 0 0 0 0 -1 0
-55 -46 -1 -4 -1 -11 -6 -25 -105 0 -121 -134 -175 -134 -132 -140 -126 -144 -63 -26 -25 -15 -23 0 0 0 0 0 0 0 0 0 0 0 0 0 0 0 0 0 0 0 0 0 0 0 0 -9 -3
-32 -14 0 0 -15 -25 -51 -32 -102 -82 -135 -138 -159 -161 -169 -100 -125 -105 -44 -61 -60 -13 -4 0 0 0 0 0 0 0 0 0 0 0 0 0 0 0 0 0 0 0 0 0 0 0 -8 -1 0
-9 -3 -10 -2 -10 -29 -16 -52 -103 -156 -187 -216 -201 -209 -157 -89 -125 -83 -82 -77 -31 -21 -6 -1 0 0 0 0 0 0 0 0 0 0 0 0 0 0 0 0 0 0 0 0 0 -8 -2 0 0
-2 -61 0 -10 -25 -14 -4 -37 -107 -169 -166 -74 -46 -47 -13 -109 -111 -113 -107 -75 -39 -17 -10 -8 -5 -1 0 0 0 0 0 0 0 -1 0 0 0 0 0 0 0 0 0 0 -6 -8 -5 -2 0
-14 -32 -22 -8 -3 0 -5 -25 -56 -150 -70 0 0 -182 -69 0 -93 -94 -73 -52 -31 -24 -36 -14 -15 -12 -9 -2 0 0 0 0 0 0 0 0 0 0 0 -2 0 0 0 -3 -10 -9 -10 -7 -3
-58 -47 -44 -9 -10 -18 -12 -54 -110 -151 -65 0 0 -74 -115 -35 -114 -77 -37 -32 -12 -8 -21 -28 -37 -21 -18 -14 -3 -1 0 0 0 -3 0 -11 -31 -22 -46 -5 0 0 -1 -14 -11 -12 -17 -15 -14
-5 0 -63 -21 -8 -10 -23 -50 -113 -23 -14 0 0 0 0 -98 -140 -111 -98 -68 -13 -20 -10 -33 -61 -35 -18 -4 -17 -17 -12 -36 -24 -27 -35 -71 -67 -51 -36 -4 0 0 -14 -24 -18 -15 -21 -45 -72
-14 -59 0 -25 -30 -11 -16 -67 -95 -53 -40 -170 0 0 0 -85 -139 -24 -117 -130 -82 -57 -10 -41 -66 -44 -24 -21 -48 -66 -98 -67 -68 -62 -67 -87 -87 -61 -63 -89 -100 -100 -84 -204 -168 -118 -85 -68 -97
0 -14 -116 -60 -25 -38 -33 -53 -99 -63 -60 -21 0 -46 -5 0 -35 -18 -136 -140 -135 -88 -29 -51 -67 -48 -49 -51 -69 -78 -78 -80 -91 -89 -105 -106 -130 -116 -133 -139 -154 -177 -264 -326 0 0 -28 -167 -139
-86 -47 -72 -13 -12 -33 -60 -44 -49 -68 -44 -18 -105 -110 -99 -117 -131 -122 -119 -127 -125 -102 -65 -71 -90 -77 -75 -56 -81 -82 -83 -84 -107 -113 -111 -143 -155 -145 -169 -155 -164 -204 -201 0 -113 0 -235 0 -242
-66 -80 -74 -53 -11 -29 -5 -26 -2 -35 -33 -5 -73 0 -69 -74 -123 -99 -105 -123 -125 -129 -108 -106 -104 -90 -109 -115 -91 -94 -108 -97 -111 -126 -121 -169 -235 -211 -170 -169 -167 -198 -283 -216 -208 -177 -177 0 -64
0 -75 -45 -69 -26 -46 -53 -34 -13 -34 -62 0 0 -17 -80 -90 -87 -131 -144 -134 -138 -137 -152 -138 -143 -117 -117 -120 -114 -106 -124 -126 -117 -124 -126 -176 -266 -223 -175 -178 -183 -189 -210 -197 -181 -141 -176 0 0
0 -44 -22 -82 -18 -111 -60 -63 -64 -86 -78 -19 0 0 -53 -61 -107 -119 -145 -127 -133 -162 -157 -142 -88 -132 -135 -151 -123 -131 -138 -130 -150 -125 -109 -139 -174 -162 -192 -194 -200 -229 -159 -178 -151 -150 -157 -250 -21
0 0 -40 -74 -25 -58 -98 -124 -69 -77 -105 -76 0 0 -45 -58 -94 -113 -129 -148 -155 -165 -180 -126 -107 -123 -140 -124 -153 -165 -271 -221 -195 -146 -127 -105 -153 -170 -139 -159 -172 -157 -165 -137 -166 -178 -193 -131 -164
0 0 -24 -42 -37 -15 -49 -105 -138 -100 -102 -51 -73 0 -36 -68 -102 -101 -128 -123 -125 -162 -165 -128 -145 -149 -155 -142 -195 -227 0 0 0 -149 -129 -110 -129 -110 -116 -146 -131 -127 -142 -131 -156 -137 -180 -182 -236
0 0 -60 -65 -108 -95 -65 -63 -110 -102 -61 -50 -57 0 -46 -76 -96 -123 -128 -114 -126 -147 -188 -124 -133 -187 -139 -142 -145 -156 -27 -266 -163 -137 -121 -93 -104 -78 -110 -116 -131 -126 -111 -123 -127 -142 -148 -191 -299
0 -10 -59 -22 -31 -41 -8 -58 -41 -35 -51 -64 -55 0 -24 -75 -110 -104 -99 -113 -156 -194 -197 -158 -127 0 -138 -132 -171 -147 -169 -206 -229 -217 -134 -98 -78 -108 -110 -120 -119 -118 -126 -138 -113 -134 -143 -176 -341
0 0 -105 -84 -75 -67 -7 -18 -29 -42 -49 -57 -62 0 -18 -103 -114 -98 -99 -112 -169 -206 -206 -157 -163 0 -187 -122 -188 -211 -176 -160 -142 -148 -125 -94 -82 -94 -89 -109 -120 -109 -148 -124 -129 -122 -121 -104 -189
0 0 -130 -92 -138 -50 -82 -9 -67 -30 -26 -23 -34 0 -71 -84 -125 -136 -115 -125 -198 -194 -181 -182 -175 -22 0 -163 -120 -114 -88 -104 -136 -156 -154 -95 -76 -75 -94 -109 -115 -118 -148 -118 -125 -134 -188 -183 -117
0 0 -58 -160 -112 -114 -88 -3 0 -60 -1 -14 -32 0 -44 -93 -145 -156 -147 -176 -227 -175 -188 -181 -180 -125 -179 -179 -159 -183 -212 -257 -194 -160 -153 -109 -88 -82 -77 -96 -120 -129 -159 -156 -124 -107 -139 -156 -143
0 -164 -170 0 0 -56 -151 -161 0 -200 -138 -131 -95 -74 -72 -85 -102 -148 -150 -163 -189 -157 -169 -167 -184 -225 -162 -143 -211 -208 -291 -191 -115 -133 -134 -126 -113 -97 -93 -104 -127 -152 -160 -155 -142 -135 -152 -119 -129
0 -47 -17 -43 -21 -22 0 -191 0 -263 -196 -238 -164 -94 -53 -108 -122 -119 -128 -131 -149 -146 -177 -184 -187 -215 -208 -132 -117 -171 -220 -223 -124 -139 -152 -143 -124 -117 -87 -104 -125 -130 -148 -165 -181 -126 -118 -138 -135
0 0 -2 -1 0 0 0 0 0 -298 -175 -129 -85 -164 -164 -161 -167 -182 -132 -107 -148 -158 -178 -182 -213 -209 -241 -172 -133 -145 -213 -232 -200 -180 -239 -191 -136 -108 -101 -102 -110 -125 -138 -142 -149 -149 -123 -122 -136
0 0 0 0 0 -10 0 -7 -30 -256 -339 -189 -203 -131 -124 -169 -189 -202 -199 -200 -109 -151 -181 -130 -153 -188 -198 -160 -160 -143 -183 -246 -236 -200 -266 -280 -217 -142 -121 -108 -98 -104 -121 -121 -131 -129 -114 -117 -147
0 0 0 0 0 -5 0 -232 -228 -93 -225 -172 -157 -193 -181 -157 -176 -201 -82 -29 -185 -192 -227 -284 -156 -148 -144 -134 -128 -129 -137 -203 -227 -236 -211 -205 -203 -158 -121 -127 -114 -113 -110 -108 -125 -136 -159 -133 -156
0 0 0 0 0 -6 -112 -140 -104 -100 -59 -101 -125 -235 -189 -159 -169 -166 -158 -145 -166 -215 -252 -299 -266 -150 -106 -91 -92 -82 -94 -104 -158 -193 -228 -217 -175 -173 -161 -152 -184 -131 -101 -104 -110 -128 -136 -133 -145
0 0 0 0 0 0 0 -151 -120 -81 -93 -116 -134 -166 -203 0 -18 -239 -172 -106 -109 -183 -165 -187 -254 -233 -152 -132 -102 -103 -125 -125 -108 -121 -135 -111 -132 -194 -181 -199 -223 -184 -118 -103 -110 -99 -88 -106 -100
Wind_Speed
5 4 1 1 1 1 3 5 3 6 11 7 17 4 5 6 3 3 6 9 14 11 8 9 12 14 13 13 12 11 11 12 12 11 13 12 12 11 11 12 14 14 15 16 16 17 17 17 16
5 4 1 1 3 2 1 4 3 2 6 21 6 9 7 3 5 12 7 12 12 11 6 6 11 12 14 13 13 12 10 10 10 10 12 12 11 12 12 13 13 14 15 15 14 15 15 14 13
6 2 2 1 2 4 3 3 9 16 17 12 7 7 5 3 13 9 10 15 12 8 7 8 12 12 13 11 14 12 12 12 10 9 11 12 12 13 12 12 13 14 15 15 14 14 12 9 9
3 2 2 2 6 4 5 5 8 7 9 8 16 11 6 10 6 7 14 15 11 7 6 11 12 12 12 11 11 13 10 13 12 9 11 11 12 12 12 12 12 14 14 14 14 11 9 9 12
2 1 2 3 5 3 3 7 4 4 4 10 7 7 8 4 17 16 14 12 12 6 5 8 12 13 11 9 11 10 10 11 11 11 11 10 12 12 12 10 10 13 14 13 13 11 11 11 12
1 0 2 3 5 1 1 8 3 10 12 14 14 11 5 14 17 14 12 11 10 9 6 5 11 11 11 9 10 10 10 10 12 10 11 12 12 11 11 10 10 12 13 13 11 11 11 12 11
3 1 2 3 6 3 4 7 4 7 10 10 9 8 7 12 13 13 11 10 8 7 6 5 5 8 11 10 8 9 10 9 11 12 11 12 10 11 10 9 9 11 12 12 10 10 9 7 9
4 1 3 2 6 4 3 3 2 7 12 16 10 5 12 13 14 11 9 7 6 5 5 5 4 5 5 5 10 9 9 10 11 11 12 11 10 10 8 7 8 10 11 10 8 8 7 7 9
3 1 4 7 6 7 5 4 4 2 10 4 5 8 13 18 16 12 10 5 6 5 3 4 5 5 4 3 5 8 9 10 11 11 10 7 3 4 5 7 10 9 9 8 7 8 7 6 7
3 2 2 4 3 9 13 8 8 5 7 11 17 17 19 18 17 15 12 9 6 5 4 3 5 5 4 2 4 2 3 4 3 4 5 3 4 2 2 6 8 9 8 7 5 5 5 4 3
4 3 4 4 5 6 12 9 5 12 3 13 24 23 20 17 14 14 12 12 10 6 4 5 5 5 4 4 2 1 1 2 2 5 4 3 2 1 2 2 3 4 6 4 5 4 1 1 1
4 2 6 3 8 16 15 10 10 8 3 9 20 23 20 19 16 13 12 12 10 8 6 5 5 5 3 3 3 2 2 2 2 3 4 3 1 0 2 2 2 3 3 3 3 2 4 4 5
3 6 8 6 3 12 15 8 7 11 2 11 22 22 20 18 15 11 8 9 10 9 6 6 6 5 4 4 3 2 3 2 2 4 4 3 3 2 1 1 2 2 3 3 2 3 3 2 2
7 8 8 7 8 14 13 6 9 8 1 13 25 21 19 19 16 11 10 10 11 8 8 6 6 5 6 4 5 3 2 2 2 1 4 5 3 4 3 2 1 1 1 2 1 2 3 4 2
7 8 10 8 11 6 13 4 3 6 2 13 20 20 18 17 15 17 15 13 13 10 9 9 7 6 6 6 4 2 3 3 3 3 5 5 5 5 4 3 2 2 2 2 2 2 3 3 3
2 6 6 7 14 9 0 4 8 5 5 8 20 18 18 17 18 14 14 13 10 9 11 8 8 6 6 5 4 3 4 3 3 3 4 5 5 5 4 3 2 1 1 1 2 3 2 3 2
5 4 5 7 11 5 3 3 9 10 8 7 19 15 17 17 13 12 14 12 12 13 11 9 7 7 6 4 4 4 4 3 2 3 4 5 5 5 3 3 3 2 1 2 1 2 2 2 2
3 3 1 4 10 9 6 6 13 15 9 6 5 12 17 16 16 15 14 11 10 9 8 8 6 7 6 4 4 3 3 2 1 1 3 5 3 4 4 3 2 3 2 1 2 2 2 1 1
4 2 9 6 8 7 5 6 10 15 8 7 4 8 17 17 13 15 15 13 10 7 7 8 8 6 5 2 4 2 2 1 1 1 1 3 4 3 3 3 3 2 3 1 1 1 3 3 3
3 4 6 9 7 8 10 9 8 14 9 6 6 7 15 14 14 15 13 13 12 13 10 8 8 8 5 4 1 3 2 1 1 2 2 1 1 2 3 3 3 2 2 3 2 3 1 2 2
3 5 7 9 8 5 9 2 8 10 9 9 9 7 16 16 17 15 15 16 12 13 12 12 9 9 6 6 4 3 3 2 2 0 1 3 3 3 3 3 2 2 2 3 1 2 3 1 2
2 8 9 15 10 6 7 4 5 12 12 11 10 11 16 17 15 17 16 15 13 13 11 11 9 8 6 7 5 6 5 4 3 3 2 3 4 4 3 2 2 3 2 1 1 1 2 2 3
10 6 14 13 4 5 4 3 3 10 11 10 12 13 17 21 21 20 19 18 14 13 13 12 10 8 7 7 7 5 4 2 2 2 3 3 3 4 4 5 5 4 3 1 2 1 2 2 1
2 9 11 6 4 2 8 6 5 13 18 24 19 14 18 20 21 19 17 17 14 11 11 11 10 8 8 7 7 8 8 6 4 3 3 2 2 3 5 5 4 4 3 4 2 0 3 2 2
4 8 3 4 1 7 5 2 4 12 18 26 24 12 14 15 15 14 12 14 14 14 11 10 9 7 7 8 7 7 7 7 7 5 4 4 2 2 5 4 4 3 4 4 4 3 2 2 1
8 10 8 7 6 3 5 5 3 8 11 6 14 10 10 12 14 14 16 13 12 13 12 12 10 7 7 7 7 6 6 4 4 5 4 4 4 3 4 5 4 5 4 4 5 3 3 2 1
4 4 7 8 2 5 3 1 4 9 10 10 14 13 9 10 13 12 7 7 4 7 7 4 4 1 4 6 5 6 6 6 5 5 4 3 3 3 5 5 6 6 5 5 5 3 3 3 1
7 7 4 3 5 3 3 1 2 3 6 6 11 11 10 9 10 13 10 13 7 8 8 10 5 4 4 3 3 3 5 6 4 4 5 5 4 4 5 6 5 5 5 5 4 3 3 4 2
3 2 7 6 4 6 4 4 4 3 8 11 10 11 11 9 8 9 11 7 5 9 10 9 9 8 1 3 3 2 3 3 3 4 5 6 4 5 7 6 6 6 5 5 4 4 3 4 4
1 5 5 7 3 4 4 3 4 9 9 11 11 11 10 8 6 7 5 4 3 5 6 6 6 8 5 5 3 1 2 1 3 4 5 5 6 5 6 5 6 6 5 5 5 5 4 5 5
Wind_Direction
210 145 193 302 76 299 197 255 355 119 134 165 149 146 178 93 158 192 144 141 133 139 147 144 141 130 128 126 125 123 119 123 124 120 121 118 116 111 108 106 106 104 103 101 102 104 104 106 103
137 155 357 94 101 338 174 309 256 173 126 126 127 87 41 72 75 119 121 139 134 135 133 138 139 145 134 136 134 131 132 125 123 117 122 120 119 116 114 112 112 108 106 107 105 101 100 99 107
170 242 66 261 115 207 311 159 106 112 123 121 113 60 65 70 116 124 136 132 127 120 123 142 146 144 133 145 135 136 144 137 136 132 124 128 120 124 115 114 116 111 110 110 106 101 98 103 121
186 26 358 336 244 173 211 122 132 114 80 63 108 89 92 111 119 129 136 127 117 118 128 144 150 135 134 136 136 133 136 141 140 134 132 128 126 128 117 110 116 115 114 116 112 108 102 102 104
343 77 195 214 245 161 235 295 249 94 75 130 128 92 90 54 112 128 133 127 130 135 142 142 149 140 139 134 129 134 133 132 143 141 137 134 131 124 123 117 120 116 119 118 115 103 97 113 119
299 326 316 222 200 96 14 295 122 96 101 110 103 109 69 128 128 138 133 133 140 139 130 148 143 147 139 136 133 139 129 143 135 135 139 132 130 129 132 134 130 121 119 114 113 113 101 97 121
251 210 280 242 184 113 120 295 74 126 102 87 127 88 122 137 145 134 140 135 136 135 127 127 141 151 144 148 135 138 133 138 125 130 129 127 139 138 132 137 131 124 115 118 125 123 107 87 109
125 200 276 180 167 106 39 358 339 41 69 98 128 132 154 155 140 122 119 119 112 117 115 139 134 115 118 127 145 135 141 133 134 130 131 134 145 137 131 135 125 122 114 123 131 130 113 87 83
123 94 4 340 113 98 167 174 17 334 124 117 145 119 140 134 126 122 117 108 104 129 142 152 135 123 127 132 153 143 147 144 138 135 131 113 63 78 80 118 118 121 118 123 119 121 111 96 90
104 69 179 7 301 153 176 141 98 120 135 96 101 107 130 136 143 142 149 151 151 162 176 162 140 136 149 144 95 124 154 96 92 88 97 84 67 100 105 114 122 121 122 111 96 112 122 101 73
155 183 167 323 260 200 143 130 113 142 109 145 136 141 145 148 155 154 165 159 170 164 183 172 150 148 161 119 125 91 70 85 103 108 110 100 90 35 69 46 43 56 66 42 43 51 32 237 137
139 259 111 303 8 148 155 131 140 181 143 162 148 145 152 159 163 161 172 168 160 161 187 174 155 159 170 152 162 162 135 126 150 147 153 119 96 28 57 64 48 68 66 50 32 3 316 274 216
214 147 172 141 127 140 137 148 154 223 265 153 141 146 164 164 163 164 170 161 155 164 173 181 156 165 176 170 152 177 204 176 178 155 160 146 164 152 79 26 354 21 29 16 4 312 320 24 105
195 166 164 158 171 141 118 135 168 207 120 166 147 158 170 166 164 156 160 170 163 172 166 157 172 172 173 169 176 189 220 177 178 210 175 154 147 169 190 223 287 358 119 327 304 283 20 16 19
217 161 165 170 167 122 131 72 171 129 326 162 149 164 169 167 163 171 166 174 169 171 155 164 173 175 179 185 175 177 191 178 179 184 156 155 179 191 198 231 256 293 316 308 325 48 52 58 17
211 130 154 174 174 188 153 199 222 196 178 188 154 165 168 175 174 164 168 169 167 158 163 154 181 184 175 184 195 193 175 163 169 171 155 172 193 189 184 175 125 291 329 315 23 357 48 117 130
17 162 189 165 197 137 219 137 193 206 198 204 170 161 172 175 167 162 170 168 167 168 158 158 162 177 176 184 127 117 111 118 183 152 151 165 171 174 136 174 165 157 290 24 330 22 53 349 296
68 41 131 149 170 98 328 306 176 199 184 207 200 144 168 168 174 167 166 165 158 166 152 146 153 159 157 114 88 69 70 67 42 135 143 146 179 192 140 126 151 120 49 353 324 22 18 352 307
103 1 79 65 82 86 257 285 188 187 203 207 233 142 167 169 169 165 169 163 151 154 150 153 145 164 141 127 130 131 166 176 171 260 231 149 180 190 136 138 139 106 97 93 324 44 37 359 10
124 100 88 79 127 73 265 252 172 199 225 228 212 152 161 159 161 166 168 167 171 164 171 163 164 166 176 127 130 142 150 177 172 165 189 254 219 198 144 149 145 130 136 103 7 27 52 358 45
138 159 175 141 146 142 169 309 199 223 234 235 249 168 165 161 162 167 172 179 170 170 178 182 175 173 167 140 118 78 75 81 82 232 204 216 183 206 160 144 151 137 104 138 120 360 61 35 339
203 191 154 151 164 176 164 218 222 181 212 237 225 177 167 168 163 170 179 179 181 182 178 180 169 165 155 166 145 164 169 163 204 176 183 194 196 200 188 167 195 149 118 126 164 128 79 77 16
223 154 179 159 94 99 175 117 229 162 199 226 226 188 177 178 170 176 181 181 182 175 177 181 168 160 156 163 161 153 151 175 206 173 182 193 187 197 210 179 157 146 135 201 224 104 104 84 39
141 83 58 65 99 327 188 187 194 179 184 198 223 193 180 183 181 178 179 173 176 173 175 174 177 173 163 162 164 170 172 175 174 181 187 202 190 205 218 192 169 170 167 179 194 240 166 123 107
127 93 51 48 33 221 163 154 217 201 195 201 198 173 174 181 170 162 172 180 171 174 174 173 182 181 177 168 169 177 179 183 189 184 178 168 181 205 228 194 182 182 198 189 171 174 186 180 144
186 152 151 156 187 236 97 224 294 267 214 136 173 127 117 122 147 157 195 191 177 181 175 180 179 186 173 188 184 170 174 191 202 189 180 184 186 202 196 207 204 211 201 186 172 172 178 180 206
194 146 185 105 15 99 198 26 19 40 76 119 126 132 121 124 122 113 103 348 114 121 125 157 160 278 177 198 191 180 169 196 206 201 188 183 185 213 228 210 205 207 203 197 169 186 184 175 228
152 161 76 13 139 147 330 76 248 49 108 95 99 121 119 116 122 114 127 174 130 114 104 81 105 195 192 200 227 208 198 193 194 179 216 222 230 215 218 208 213 210 207 202 190 199 213 195 213
45 65 60 110 105 144 141 282 336 159 123 120 110 115 128 117 118 127 130 132 138 128 123 101 80 48 14 230 207 195 255 241 213 211 211 219 211 204 223 207 206 211 213 210 199 238 241 236 241
56 148 126 120 200 78 116 260 40 87 93 108 119 124 110 108 106 106 109 124 136 93 66 97 90 90 45 30 352 8 48 327 258 258 245 231 243 207 216 198 204 207 210 214 200 224 232 235 242